STARLINK-36926

Last updated on Mon Mar 30 2026 00:02:05 GMT+0000 (Coordinated Universal Time)

1 67999U 26039P 26088.16668981 -.01955134 00000+0 -47774-1 0 9998 2 67999 42.9998 298.7983 0001639 275.2674 88.0649 15.43438556 6006
UTC large
Height (km)
Speed (km/s)
/
Latitude / Longitude
Inclination (degrees)
Orbital Period (minutes)
Azimuth
Elevation
Range (km)
Doppler Factor

Next 0 passes for location: London (51.5072 / 0.1276)

Sorry there are no passes over London.